Regional Weather Roundup
Issued by NWS

Current Version | Previous Version | Text Only | Print | Product List | Glossary Off
Versions: 1 2 3 4 5 6 7 8 9 10 11 12 13 14 15 16 17 18 19 20 21 22 23 24 25 26 27 28 29 30 31 32 33 34 35 36 37 38 39 40 41 42 43 44 45 46 47 48 49 50

000
ASUS42 KFFC 292103
RWRGA
WEATHER ROUNDUP FOR GEORGIA
NATIONAL WEATHER SERVICE PEACHTREE CITY GA
500 PM EDT TUE JUL 29 2014

NOTE: "FAIR" INDICATES FEW OR NO CLOUDS BELOW 12,000 FEET WITH NO
SIGNIFICANT WEATHER AND/OR OBSTRUCTIONS TO VISIBILITY.

* = USE WITH CAUTION. THE STATIONS MARKED WITH AN ASTERISK MAY NOT
REPORT WEATHER SUCH AS PRECIPITATION, FOG, OR THUNDER AND ARE NOT
QUALITY CONTROLLED BY NWS.

THE REMARK "TC" DENOTES TEMPERATURE READING IN DEGREES CELSIUS.

GAZ001>058-292200-
NORTH GEORGIA

CITY           SKY/WX    TMP DP  RH WIND       PRES   REMARKS
ATLANTA        MOSUNNY   82  58  43 NW14G20   29.98F
ATHENS         MOSUNNY   83  53  35 W8        29.95F
CHAMBLEE       MOSUNNY   83  54  36 W13       29.98F
PEACHTREE CITY MOSUNNY   83  56  39 W10       29.99F
ROME           SUNNY     82  53  36 NW6       30.00F
WEST ATLANTA   MOSUNNY   81  58  45 W9        29.98F
GAINESVILLE    MOSUNNY   80  55  42 NW9G18    30.00S
CARTERSVILLE   MOSUNNY   83  54  36 VRB3      30.00S


CITY           SKY/WX    TMP DP  RH WIND       PRES   REMARKS
DALTON*        SUNNY     79  54  41 NW9       30.01S
LAWRENCEVILLE* MOSUNNY   81  52  36 W12       29.98S
MARIETTA       MOSUNNY   80  58  46 W10       29.99F
KENNESAW*      MOSUNNY   81  55  41 N7G17     30.01S
$$

GAZ059>098-102>109-292200-
CENTRAL GEORGIA

CITY           SKY/WX    TMP DP  RH WIND       PRES   REMARKS
AUGUSTA-BUSH   MOSUNNY   88  57  34 CALM      29.90F
AUGUSTA-DANIEL MOSUNNY   88  57  34 VRB6      29.92F
COLUMBUS       MOSUNNY   86  55  34 NW10G18   29.97S
MACON          MOSUNNY   84  57  39 N8        29.94F
ROBINS AFB     MOSUNNY   86  59  40 N8        29.94S


CITY           SKY/WX    TMP DP  RH WIND       PRES   REMARKS
LAGRANGE*      MOSUNNY   86  61  42 NW10      29.99F
SYLVANIA*      MOSUNNY   88  67  50 NW7       29.92S HX  91
MILLEDGEVILLE* SUNNY     79  50  36 W3        29.94S
$$

GAZ099>101-110>166-292200-
SOUTH GEORGIA

CITY           SKY/WX    TMP DP  RH WIND       PRES   REMARKS
SAVANNAH       MOSUNNY   92  58  31 VRB7      29.89F HX  91
VALDOSTA       MOSUNNY   94  59  31 VRB6      29.92F HX  93
ALMA           SUNNY     92  56  29 N8        29.90F HX  90
ST SIMONS      MOSUNNY   87  71  58 SE12      29.87F HX  93
FT STEWART     SUNNY     91  58  33 W8        29.88F HX  90
ALBANY         CLOUDY    91  57  31 NW10      29.96F
HUNTER AFB     MOSUNNY   90  63  40 SE5       29.87F HX  90
MOODY AFB      MOSUNNY   91  74  58 NW10      29.92F HX 100
BRUNSWICK      SUNNY     95  54  24 W7        29.88F HX  93


CITY           SKY/WX    TMP DP  RH WIND       PRES   REMARKS
BAINBRIDGE*    SUNNY     91  64  40 NW10      29.95S HX  93
MOULTRIE*      MOSUNNY   88  59  37 NW8       29.95S
VIDALIA*         N/A     88  59  37 W5        29.91S
WAYCROSS*      MOSUNNY   96  63  33 N13       29.89F HX  98
DOUGLAS*       CLOUDY    91  55  29 NW6       29.92F
$$


USA.gov is the U.S. government's official web portal to all federal, state and local government web resources and services.